| time (UTC) | temp C | wind direction | speed KPH | gust KPH | rain 1hr cm | rain 24hr cm | rain mn cm | humidity % | barometer mb |
| 20260505024551 | 16 | 155 | 14.5 | 17.7 | 0.00 | 0.00 | 0.00 | 63 | 1026.1 |
| 20260505023603 | 16 | 146 | 11.3 | 20.9 | 0.00 | 0.00 | 0.00 | 62 | 1026.2 |
| 20260505022551 | 16 | 153 | 14.5 | 20.9 | 0.00 | 0.00 | 0.00 | 63 | 1026.4 |
| 20260505021551 | 17 | 175 | 16.1 | 20.9 | 0.00 | 0.00 | 0.00 | 63 | 1026.3 |
| 20260505020525 | 17 | 166 | 14.5 | 19.3 | 0.00 | 0.00 | 0.00 | 64 | 1026.3 |
| 20260505015611 | 17 | 178 | 12.9 | 19.3 | 0.00 | 0.00 | 0.00 | 62 | 1026.4 |
| 20260505014535 | 17 | 223 | 14.5 | 19.3 | 0.00 | 0.00 | 0.00 | 62 | 1026.4 |
| 20260505013611 | 16 | 209 | 12.9 | 19.3 | 0.00 | 0.00 | 0.00 | 61 | 1026.5 |
| 20260505012551 | 16 | 212 | 9.7 | 16.1 | 0.00 | 0.00 | 0.00 | 64 | 1026.4 |
| 20260505011612 | 16 | 237 | 12.9 | 19.3 | 0.00 | 0.00 | 0.00 | 65 | 1026.4 |
| 20260505010611 | 16 | 265 | 12.9 | 19.3 | 0.00 | 0.00 | 0.00 | 66 | 1026.4 |
| 20260505005525 | 16 | 234 | 9.7 | 16.1 | 0.00 | 0.05 | 0.00 | 66 | 1026.3 |
| 20260505004551 | 16 | 210 | 11.3 | 20.9 | 0.00 | 0.05 | 0.00 | 69 | 1026.3 |
| 20260505003535 | 16 | 196 | 16.1 | 19.3 | 0.00 | 0.05 | 0.00 | 68 | 1026.2 |
| 20260505002551 | 15 | 189 | 12.9 | 17.7 | 0.00 | 0.05 | 0.00 | 70 | 1026.3 |
| 20260505001551 | 15 | 203 | 19.3 | 24.1 | 0.00 | 0.08 | 0.00 | 71 | 1026.2 |
| 20260505000551 | 15 | 194 | 17.7 | 20.9 | 0.00 | 0.08 | 0.00 | 73 | 1026.2 |
| 20260504235551 | 15 | 186 | 16.1 | 19.3 | 0.00 | 0.08 | 0.00 | 76 | 1026.2 |
| 20260504234525 | 15 | 180 | 12.9 | 17.7 | 0.00 | 0.08 | 0.00 | 79 | 1026.2 |
| 20260504233611 | 15 | 185 | 11.3 | 14.5 | 0.00 | 0.08 | 0.00 | 81 | 1026.2 |
| 20260504232535 | 15 | 198 | 11.3 | 19.3 | 0.00 | 0.08 | 0.00 | 82 | 1026.0 |
| 20260504231551 | 15 | 202 | 9.7 | 14.5 | 0.00 | 0.08 | 0.00 | 81 | 1025.9 |
| 20260504230551 | 14 | 180 | 8.0 | 12.9 | 0.00 | 0.15 | 0.00 | 83 | 1025.8 |
| 20260504225551 | 14 | 180 | 12.9 | 20.9 | 0.00 | 0.28 | 0.00 | 83 | 1025.7 |
| 20260504224551 | 14 | 195 | 11.3 | 16.1 | 0.00 | 0.33 | 0.00 | 84 | 1025.6 |
| 20260504223606 | 13 | 202 | 11.3 | 16.1 | 0.00 | 0.33 | 0.00 | 87 | 1025.6 |
| 20260504222551 | 12 | 200 | 11.3 | 17.7 | 0.00 | 0.33 | 0.00 | 90 | 1025.5 |
| 20260504221535 | 12 | 228 | 8.0 | 11.3 | 0.00 | 0.61 | 0.00 | 92 | 1025.4 |
| 20260504220551 | 12 | 241 | 6.4 | 12.9 | 0.00 | 0.76 | 0.00 | 93 | 1025.4 |
| 20260504215551 | 12 | 225 | 4.8 | 12.9 | 0.00 | 0.76 | 0.00 | 93 | 1025.2 |
| 20260504214551 | 12 | 225 | 8.0 | 9.7 | 0.00 | 0.76 | 0.00 | 93 | 1025.1 |
| 20260504213551 | 12 | 225 | 11.3 | 16.1 | 0.00 | 0.76 | 0.00 | 94 | 1025.0 |
| 20260504212525 | 12 | 248 | 9.7 | 12.9 | 0.00 | 0.76 | 0.00 | 94 | 1024.9 |
| 20260504211551 | 11 | 225 | 9.7 | 14.5 | 0.00 | 0.76 | 0.00 | 94 | 1024.9 |
| 20260504210535 | 11 | 225 | 11.3 | 14.5 | 0.00 | 0.79 | 0.00 | 95 | 1024.8 |
| 20260504205551 | 11 | 248 | 9.7 | 14.5 | 0.00 | 0.79 | 0.00 | 95 | 1024.7 |
| 20260504204551 | 11 | 248 | 8.0 | 11.3 | 0.00 | 0.91 | 0.00 | 95 | 1024.6 |
| 20260504203551 | 11 | 248 | 9.7 | 12.9 | 0.00 | 1.04 | 0.00 | 94 | 1024.5 |
| 20260504202551 | 11 | 254 | 11.3 | 14.5 | 0.00 | 1.04 | 0.00 | 94 | 1024.5 |
| 20260504201551 | 11 | 248 | 11.3 | 14.5 | 0.00 | 1.04 | 0.00 | 94 | 1024.4 |
| 20260504200611 | 11 | 248 | 12.9 | 14.5 | 0.00 | 1.04 | 0.00 | 94 | 1024.3 |
| 20260504195535 | 11 | 239 | 14.5 | 17.7 | 0.00 | 1.09 | 0.00 | 94 | 1024.2 |
| 20260504194551 | 11 | 248 | 8.0 | 14.5 | 0.00 | 1.09 | 0.00 | 95 | 1024.1 |
| 20260504193551 | 11 | 225 | 9.7 | 12.9 | 0.00 | 1.09 | 0.00 | 95 | 1024.1 |
| 20260504192643 | 11 | 228 | 11.3 | 14.5 | 0.00 | 1.09 | 0.00 | 95 | 1024.0 |
| 20260504191551 | 11 | 248 | 8.0 | 12.9 | 0.00 | 1.09 | 0.00 | 95 | 1024.0 |
| 20260504190525 | 10 | 248 | 8.0 | 12.9 | 0.00 | 1.09 | 0.00 | 95 | 1023.9 |
| 20260504185611 | 10 | 270 | 6.4 | 9.7 | 0.00 | 1.09 | 0.00 | 95 | 1023.9 |
| 20260504184535 | 10 | 270 | 8.0 | 11.3 | 0.00 | 1.09 | 0.00 | 94 | 1023.8 |
| 20260504183550 | 10 | 270 | 8.0 | 9.7 | 0.00 | 1.09 | 0.00 | 94 | 1023.6 |
| 20260504182551 | 10 | 270 | 11.3 | 14.5 | 0.00 | 1.09 | 0.00 | 94 | 1023.6 |
| 20260504181551 | 10 | 270 | 12.9 | 14.5 | 0.00 | 1.09 | 0.00 | 94 | 1023.6 |
| 20260504180550 | 10 | 270 | 6.4 | 12.9 | 0.00 | 1.09 | 0.00 | 93 | 1023.6 |
| 20260504175526 | 10 | 270 | 11.3 | 12.9 | 0.00 | 1.09 | 0.00 | 93 | 1023.5 |
| 20260504174611 | 11 | 267 | 11.3 | 14.5 | 0.00 | 1.09 | 0.00 | 92 | 1023.5 |
| 20260504173535 | 11 | 248 | 9.7 | 14.5 | 0.00 | 1.09 | 0.00 | 92 | 1023.5 |
| 20260504172611 | 11 | 248 | 11.3 | 14.5 | 0.00 | 1.09 | 0.00 | 92 | 1023.6 |
| 20260504171550 | 11 | 244 | 12.9 | 17.7 | 0.00 | 1.09 | 0.00 | 92 | 1023.6 |
| 20260504170550 | 11 | 225 | 12.9 | 14.5 | 0.00 | 1.09 | 0.00 | 92 | 1023.7 |
| 20260504150550 | 10 | 270 | 14.5 | 17.7 | 0.00 | 1.09 | 0.00 | 93 | 1023.6 |
| 20260504140616 | 11 | 270 | 8.0 | 12.9 | 0.00 | 1.09 | 1.09 | 92 | 1023.2 |
| 20260504130550 | 11 | 270 | 12.9 | 14.5 | 0.00 | 1.12 | 1.09 | 93 | 1023.1 |
| 20260504110551 | 12 | 256 | 17.7 | 25.7 | 0.00 | 1.12 | 1.09 | 89 | 1022.2 |
| 20260504100550 | 14 | 255 | 17.7 | 19.3 | 0.00 | 1.12 | 1.09 | 82 | 1021.3 |
| 20260504081536 | 15 | 250 | 16.1 | 17.7 | 0.00 | 1.68 | 1.09 | 78 | 1019.6 |
| 20260504080711 | 16 | 253 | 16.1 | 19.3 | 0.00 | 1.73 | 1.09 | 76 | 1019.5 |
| 20260504050546 | 18 | 227 | 22.5 | 37.0 | 0.00 | 1.96 | 1.09 | 65 | 1017.8 |
| 20260504045550 | 18 | 214 | 22.5 | 27.4 | 0.00 | 1.96 | 1.09 | 66 | 1017.7 |
| 20260504044536 | 18 | 250 | 25.7 | 29.0 | 0.00 | 1.96 | 1.09 | 64 | 1017.6 |
| 20260504043550 | 18 | 242 | 20.9 | 24.1 | 0.00 | 1.96 | 1.09 | 70 | 1017.5 |
| 20260504042610 | 19 | 223 | 24.1 | 30.6 | 0.00 | 1.96 | 1.09 | 68 | 1017.5 |
| 20260504041550 | 19 | 232 | 22.5 | 35.4 | 0.00 | 1.96 | 1.09 | 68 | 1017.4 |
| 20260504040550 | 18 | 240 | 25.7 | 38.6 | 0.00 | 1.96 | 1.09 | 70 | 1017.4 |
| 20260504035526 | 18 | 254 | 25.7 | 30.6 | 0.00 | 1.96 | 1.09 | 70 | 1017.5 |
| 20260504034550 | 18 | 244 | 25.7 | 30.6 | 0.00 | 1.96 | 1.09 | 72 | 1017.5 |
| 20260504033616 | 18 | 247 | 20.9 | 25.7 | 0.00 | 1.96 | 1.09 | 71 | 1017.5 |
| 20260504032610 | 18 | 226 | 20.9 | 27.4 | 0.00 | 1.96 | 1.09 | 68 | 1017.5 |
| 20260504031549 | 18 | 236 | 19.3 | 27.4 | 0.00 | 1.96 | 1.09 | 71 | 1017.6 |
| 20260504030610 | 18 | 235 | 19.3 | 24.1 | 0.00 | 1.96 | 1.09 | 73 | 1017.7 |
| 20260504025549 | 17 | 243 | 20.9 | 25.7 | 0.00 | 1.96 | 1.09 | 75 | 1017.7 |